GW5131 Weather Reports


Display with metric or nautical units.
time (UTC)temp
F
wind
direction
speed
MPH
gust
MPH
rain 1hr
in
rain 24hr
in
rain mn
in
humidity
%
barometer
mb
20260509011635 53 193 0.0 0.0 0.00 0.00 0.00 81 976.6
20260509011132 54 193 0.0 0.0 0.00 0.00 0.00 83 976.5
20260509010629 54 193 0.0 0.0 0.00 0.00 0.00 78 976.5
20260509010125 53 193 0.0 0.0 0.00 0.00 0.00 81 976.3
20260509005624 54 193 0.0 0.0 0.00 0.00 0.00 83 976.4
20260509005119 54 193 0.0 1.0 0.00 0.00 0.00 82 976.2
20260509004615 54 211 0.0 0.0 0.00 0.00 0.00 77 976.0
20260509004112 54 211 0.0 0.0 0.00 0.00 0.00 79 976.2
20260509003611 54 215 0.0 0.0 0.00 0.00 0.00 74 975.9
20260509003108 54 222 0.0 1.0 0.00 0.00 0.00 82 975.8
20260509002605 54 222 0.0 0.0 0.00 0.00 0.00 77 976.2
20260509002102 55 222 0.0 0.0 0.00 0.00 0.00 77 975.9
20260509001600 55 222 0.0 0.0 0.00 0.00 0.00 72 976.1
20260509001055 55 222 0.0 0.0 0.00 0.00 0.00 74 976.2
20260509000554 56 222 0.0 0.0 0.00 0.00 0.00 67 976.2
20260509000050 56 222 0.0 1.0 0.00 0.00 0.00 68 976.5
20260508235548 57 222 0.0 0.0 0.00 0.00 0.00 68 976.5
20260508235044 58 222 0.0 0.0 0.00 0.00 0.00 65 976.2
20260508234541 58 220 0.0 0.0 0.00 0.00 0.00 64 976.3
20260508234038 59 202 0.0 0.0 0.00 0.00 0.00 62 976.1
20260508233537 59 202 0.0 0.0 0.00 0.00 0.00 63 976.1
20260508233034 60 218 0.0 1.0 0.00 0.00 0.00 56 976.0
20260508232531 61 226 0.0 1.0 0.00 0.00 0.00 58 976.1
20260508232028 62 237 0.0 1.0 0.00 0.00 0.00 57 976.1
20260508231526 62 254 1.0 2.0 0.00 0.00 0.00 50 976.1
20260508231023 63 247 0.0 2.0 0.00 0.00 0.00 43 976.1
20260508230520 64 223 1.0 3.0 0.00 0.00 0.00 46 976.1
20260508230016 63 235 1.0 2.0 0.00 0.00 0.00 45 976.1
20260508225513 63 258 1.0 2.0 0.00 0.00 0.00 45 976.2
20260508225010 63 266 3.0 3.0 0.00 0.00 0.00 53 976.1
20260508224508 63 250 2.0 2.0 0.00 0.00 0.00 52 976.1
20260508224005 65 254 0.0 2.0 0.00 0.00 0.00 57 976.1
20260508223503 64 240 0.0 2.0 0.00 0.00 0.00 45 976.1
20260508223000 63 235 1.0 1.0 0.00 0.00 0.00 48 976.3
20260508222457 63 240 1.0 2.0 0.00 0.00 0.00 55 976.3
20260508221953 64 123 0.0 2.0 0.00 0.00 0.00 44 976.2
20260508221449 64 253 2.0 3.0 0.00 0.00 0.00 46 976.2
20260508220946 65 131 1.0 2.0 0.00 0.00 0.00 40 976.2
20260508220443 66 23 1.0 2.0 0.00 0.00 0.00 39 976.1
20260508215938 66 265 0.0 4.0 0.00 0.00 0.00 46 976.2
20260508215436 66 109 1.0 3.0 0.00 0.00 0.00 41 976.0
20260508214932 68 247 1.0 7.0 0.00 0.00 0.00 37 976.1
20260508214431 67 64 2.0 4.0 0.00 0.00 0.00 39 976.3
20260508213926 66 304 2.0 2.0 0.00 0.00 0.00 40 976.1
20260508213424 65 105 1.0 3.0 0.00 0.00 0.00 42 976.5
20260508212919 66 10 0.0 1.0 0.00 0.00 0.00 39 976.4
20260508212416 66 189 0.0 3.0 0.00 0.00 0.00 40 976.5
20260508211912 66 342 1.0 9.0 0.00 0.00 0.00 40 976.3
20260508211407 67 126 1.0 2.0 0.00 0.00 0.00 40 976.5
20260508210905 68 214 1.0 4.0 0.00 0.00 0.00 38 976.5
20260508210401 67 19 1.0 3.0 0.00 0.00 0.00 38 976.5
20260508205858 68 51 2.0 4.0 0.00 0.00 0.00 36 976.7
20260508205355 68 174 2.0 4.0 0.00 0.00 0.00 40 976.5
20260508204851 68 72 2.0 7.0 0.00 0.00 0.00 37 976.6
20260508204348 67 320 2.0 6.0 0.00 0.00 0.00 41 976.9
20260508203844 66 282 2.0 7.0 0.00 0.00 0.00 41 977.0
20260508203340 67 88 3.0 10.0 0.00 0.00 0.00 40 977.0
20260508202836 69 57 4.0 4.0 0.00 0.00 0.00 39 977.0
20260508202334 68 61 3.0 7.0 0.00 0.00 0.00 37 977.0
20260508201831 69 135 2.0 4.0 0.00 0.00 0.00 42 977.0
20260508201328 68 162 2.0 6.0 0.00 0.00 0.00 38 977.1
20260508200824 68 183 0.0 6.0 0.00 0.00 0.00 41 977.2
20260508200321 68 88 3.0 4.0 0.00 0.00 0.00 41 977.4
20260508195817 67 80 3.0 6.0 0.00 0.00 0.00 45 977.4
20260508195314 67 120 4.0 9.0 0.00 0.00 0.00 40 977.5
20260508194810 68 114 2.0 3.0 0.00 0.00 0.00 41 977.7
20260508194307 68 178 2.0 6.0 0.00 0.00 0.00 40 977.7
20260508193804 66 159 2.0 6.0 0.00 0.00 0.00 39 977.7
20260508193301 65 141 5.0 8.0 0.00 0.00 0.00 41 977.9
20260508192757 65 252 4.0 7.0 0.00 0.00 0.00 40 977.8
20260508192254 66 200 2.0 7.0 0.00 0.00 0.00 43 978.2
20260508191751 66 39 3.0 6.0 0.00 0.00 0.00 42 978.2
20260508191248 65 182 2.0 4.0 0.00 0.00 0.00 47 978.5
20260508190746 65 176 1.0 4.0 0.00 0.00 0.00 43 978.4
20260508190241 67 192 0.0 3.0 0.00 0.00 0.00 43 978.4
20260508185738 68 70 3.0 6.0 0.00 0.00 0.00 43 978.5
20260508185236 67 136 1.0 4.0 0.00 0.00 0.00 43 978.5
20260508184733 67 63 2.0 3.0 0.00 0.00 0.00 43 978.6
20260508184230 65 140 2.0 2.0 0.00 0.00 0.00 43 978.6
20260508183726 65 141 2.0 6.0 0.00 0.00 0.00 39 978.5
20260508183223 67 80 2.0 4.0 0.00 0.00 0.00 45 978.5
20260508182718 66 66 4.0 8.0 0.00 0.00 0.00 42 978.5
20260508182216 66 85 2.0 7.0 0.00 0.00 0.00 42 978.7
20260508181712 65 7 0.0 4.0 0.00 0.00 0.00 45 978.6
20260508181209 65 149 0.0 2.0 0.00 0.00 0.00 41 979.0
20260508180705 65 351 3.0 3.0 0.00 0.00 0.00 41 979.0
20260508180202 66 191 4.0 7.0 0.00 0.00 0.00 41 979.0
20260508175659 66 83 0.0 3.0 0.00 0.00 0.00 43 979.3
20260508175155 66 86 0.0 3.0 0.00 0.00 0.00 42 979.3
20260508174653 65 102 2.0 6.0 0.00 0.00 0.00 44 979.3
20260508174150 66 193 4.0 6.0 0.00 0.00 0.00 43 979.3
20260508173646 64 300 3.0 8.0 0.00 0.00 0.00 50 979.3
20260508173142 65 356 3.0 6.0 0.00 0.00 0.00 43 979.3
20260508172640 65 119 2.0 6.0 0.00 0.00 0.00 43 979.4
20260508172136 64 143 2.0 4.0 0.00 0.00 0.00 45 979.3
20260508171633 66 134 2.0 7.0 0.00 0.00 0.00 41 979.6
20260508171124 65 332 2.0 3.0 0.00 0.00 0.00 44 979.6
20260508170621 64 120 3.0 6.0 0.00 0.00 0.00 45 979.8
20260508170119 65 94 3.0 4.0 0.00 0.00 0.00 45 979.9
20260508165616 62 300 2.0 6.0 0.00 0.00 0.00 44 980.2
20260508165112 63 170 3.0 4.0 0.00 0.00 0.00 44 980.3
20260508164608 64 93 2.0 4.0 0.00 0.00 0.00 49 980.3
20260508164106 64 134 1.0 7.0 0.00 0.00 0.00 44 980.2
20260508163603 64 50 7.0 8.0 0.00 0.00 0.00 41 980.2
20260508163100 62 100 4.0 6.0 0.00 0.00 0.00 45 980.3
20260508162557 62 222 5.0 6.0 0.00 0.00 0.00 43 980.5
20260508162054 63 161 6.0 9.0 0.00 0.00 0.00 44 980.7
20260508161551 62 83 3.0 7.0 0.00 0.00 0.00 44 980.4
20260508161048 62 152 4.0 7.0 0.00 0.00 0.00 47 980.6
20260508160547 62 82 5.0 11.0 0.00 0.00 0.00 48 980.6
20260508160043 63 136 3.0 7.0 0.00 0.00 0.00 45 980.6
20260508155541 63 67 1.0 11.0 0.00 0.00 0.00 43 980.7
20260508155037 63 53 2.0 7.0 0.00 0.00 0.00 44 980.6
20260508154534 63 41 0.0 7.0 0.00 0.00 0.00 44 980.7
20260508154030 62 87 2.0 3.0 0.00 0.00 0.00 47 980.7
20260508153527 62 92 4.0 9.0 0.00 0.00 0.00 43 980.7
20260508153024 62 120 1.0 6.0 0.00 0.00 0.00 41 980.7
20260508152521 62 111 3.0 4.0 0.00 0.00 0.00 44 980.6
20260508152016 62 142 2.0 4.0 0.00 0.00 0.00 42 980.8
20260508151514 62 80 2.0 6.0 0.00 0.00 0.00 48 980.8
20260508151010 61 117 4.0 8.0 0.00 0.00 0.00 44 980.7
20260508150507 61 328 2.0 4.0 0.00 0.00 0.00 50 980.8
20260508150003 59 225 5.0 8.0 0.00 0.00 0.00 46 980.8
20260508145500 60 215 3.0 7.0 0.00 0.00 0.00 46 980.8
20260508144956 59 110 3.0 8.0 0.00 0.00 0.00 48 980.8
20260508144453 59 100 4.0 6.0 0.00 0.00 0.00 47 980.7
20260508143951 59 116 2.0 4.0 0.00 0.00 0.00 47 980.8
20260508143448 58 98 4.0 7.0 0.00 0.00 0.00 47 980.9
20260508142944 58 243 2.0 7.0 0.00 0.00 0.00 49 981.0
20260508142442 58 118 4.0 8.0 0.00 0.00 0.00 51 981.2
20260508141938 57 110 3.0 6.0 0.00 0.00 0.00 51 981.2
20260508141435 58 83 2.0 6.0 0.00 0.00 0.00 54 981.3
20260508140933 58 251 3.0 6.0 0.00 0.00 0.00 48 981.1
20260508140429 57 120 0.0 4.0 0.00 0.00 0.00 53 981.3
20260508135925 58 97 1.0 3.0 0.00 0.00 0.00 53 981.3
20260508135422 57 109 2.0 6.0 0.00 0.00 0.00 54 981.5
20260508134918 56 111 3.0 6.0 0.00 0.00 0.00 54 981.4
20260508134414 56 186 0.0 6.0 0.00 0.00 0.00 56 981.6
20260508133911 56 151 2.0 6.0 0.00 0.00 0.00 54 981.7
20260508133409 55 108 1.0 4.0 0.00 0.00 0.00 59 981.3
20260508132906 55 124 1.0 4.0 0.00 0.00 0.00 61 981.5
20260508132404 55 140 3.0 4.0 0.00 0.00 0.00 60 981.3
20260508131900 55 121 3.0 4.0 0.00 0.00 0.00 59 981.5
20260508131356 54 112 1.0 3.0 0.00 0.00 0.00 61 981.5
20260508130854 53 242 3.0 6.0 0.00 0.00 0.00 61 981.5
20260508130350 53 111 0.0 4.0 0.00 0.00 0.00 67 981.3
20260508125846 52 108 0.0 2.0 0.00 0.00 0.00 66 981.4
20260508125342 51 109 2.0 3.0 0.00 0.00 0.00 68 981.5
20260508124840 49 166 2.0 2.0 0.00 0.00 0.00 80 981.4
20260508124337 47 197 1.0 2.0 0.00 0.00 0.00 82 981.3
20260508123835 46 223 1.0 2.0 0.00 0.00 0.00 84 981.3
20260508123333 45 227 1.0 2.0 0.00 0.00 0.00 88 981.0
20260508122829 44 228 1.0 1.0 0.00 0.00 0.00 88 981.5
20260508122326 42 230 0.0 0.0 0.00 0.00 0.00 89 981.3
20260508121823 41 230 0.0 1.0 0.00 0.00 0.00 91 981.2
20260508121322 40 230 0.0 0.0 0.00 0.00 0.00 93 981.2
20260508120819 39 230 1.0 1.0 0.00 0.00 0.00 95 981.5
20260508120317 38 234 0.0 1.0 0.00 0.00 0.00 99 981.4
20260508115814 38 234 1.0 1.0 0.00 0.00 0.00 99 981.2
20260508115311 37 234 0.0 0.0 0.00 0.00 0.00 99 981.1
20260508114808 37 234 0.0 0.0 0.00 0.00 0.00 99 981.1
20260508114305 37 234 0.0 0.0 0.00 0.00 0.00 99 981.2
20260508113801 35 234 0.0 0.0 0.00 0.00 0.00 99 981.1
20260508113300 33 234 0.0 0.0 0.00 0.00 0.00 99 981.2
20260508112756 33 234 0.0 0.0 0.00 0.00 0.00 99 981.0
20260508112253 33 234 0.0 0.0 0.00 0.00 0.00 99 981.1
20260508111749 33 234 0.0 0.0 0.00 0.00 0.00 99 981.0
20260508111247 33 234 0.0 0.0 0.00 0.00 0.00 99 981.1
20260508110744 32 234 0.0 0.0 0.00 0.00 0.00 99 980.9
20260508110242 32 234 0.0 0.0 0.00 0.00 0.00 99 980.9
20260508105741 32 234 0.0 0.0 0.00 0.00 0.00 99 980.8
20260508105238 31 234 0.0 0.0 0.00 0.00 0.00 99 980.6
20260508104735 31 234 0.0 0.0 0.00 0.00 0.00 99 980.7
20260508104232 31 234 0.0 0.0 0.00 0.00 0.00 99 980.5
20260508103730 31 234 0.0 0.0 0.00 0.00 0.00 99 980.7
20260508103226 31 234 0.0 0.0 0.00 0.00 0.00 99 980.5
20260508102723 31 234 0.0 0.0 0.00 0.00 0.00 99 980.5
20260508102222 31 234 0.0 0.0 0.00 0.00 0.00 99 980.5
20260508101718 31 234 0.0 0.0 0.00 0.00 0.00 99 980.5
20260508101216 30 234 0.0 0.0 0.00 0.00 0.00 99 980.5
20260508100713 30 234 0.0 0.0 0.00 0.00 0.00 99 980.6
20260508100211 30 234 0.0 0.0 0.00 0.00 0.00 99 980.5
20260508095707 31 234 0.0 0.0 0.00 0.00 0.00 99 980.3
20260508095205 31 234 0.0 0.0 0.00 0.00 0.00 99 980.4
20260508094701 31 234 0.0 0.0 0.00 0.00 0.00 99 980.6
20260508094159 30 234 0.0 0.0 0.00 0.00 0.00 99 980.6
20260508093655 31 234 0.0 0.0 0.00 0.00 0.00 99 980.4
20260508093154 31 234 0.0 0.0 0.00 0.00 0.00 99 980.5
20260508092650 31 234 0.0 0.0 0.00 0.00 0.00 99 980.4
20260508092149 30 234 0.0 0.0 0.00 0.00 0.00 99 980.3
20260508091646 30 234 0.0 0.0 0.00 0.00 0.00 99 980.2
20260508091143 31 234 0.0 0.0 0.00 0.00 0.00 99 980.2
20260508090641 31 234 0.0 0.0 0.00 0.00 0.00 99 980.1
20260508090138 31 234 0.0 0.0 0.00 0.00 0.00 99 980.3
20260508085633 31 234 0.0 0.0 0.00 0.00 0.00 99 980.4
20260508085131 31 234 0.0 0.0 0.00 0.00 0.00 99 980.5
20260508084627 31 234 0.0 0.0 0.00 0.00 0.00 99 980.6
20260508084125 31 234 0.0 0.0 0.00 0.00 0.00 99 980.6
20260508083622 31 234 0.0 0.0 0.00 0.00 0.00 99 980.4
20260508083119 32 234 0.0 0.0 0.00 0.00 0.00 99 980.4
20260508082614 31 234 0.0 0.0 0.00 0.00 0.00 99 980.4
20260508082112 31 234 0.0 0.0 0.00 0.00 0.00 99 980.3
20260508081609 31 234 0.0 0.0 0.00 0.00 0.00 99 980.2
20260508081105 31 234 0.0 0.0 0.00 0.00 0.00 99 980.3
20260508080603 31 234 0.0 0.0 0.00 0.00 0.00 99 980.3
20260508080101 31 234 0.0 0.0 0.00 0.00 0.00 99 980.3
20260508075557 31 234 0.0 0.0 0.00 0.00 0.00 99 980.4
20260508075054 31 234 0.0 0.0 0.00 0.00 0.00 99 980.0
20260508074552 32 234 0.0 0.0 0.00 0.00 0.00 99 980.3
20260508074049 32 234 0.0 0.0 0.00 0.00 0.00 99 980.1
20260508073546 32 234 0.0 0.0 0.00 0.00 0.00 99 980.1
20260508073043 32 234 0.0 0.0 0.00 0.00 0.00 99 979.8
20260508072539 32 234 0.0 0.0 0.00 0.00 0.00 99 980.1
20260508072036 31 234 0.0 0.0 0.00 0.00 0.00 99 980.2
20260508071534 32 234 0.0 0.0 0.00 0.00 0.00 99 980.1
20260508071032 32 234 0.0 0.0 0.00 0.00 0.00 99 980.1
20260508070529 32 234 0.0 0.0 0.00 0.00 0.00 99 980.2
20260508070027 33 234 0.0 0.0 0.00 0.00 0.00 99 980.1
20260508065525 32 234 0.0 0.0 0.00 0.00 0.00 99 980.1
20260508065023 33 234 0.0 0.0 0.00 0.00 0.00 99 980.3
20260508064520 33 234 0.0 0.0 0.00 0.00 0.00 99 980.2
20260508064018 33 234 0.0 0.0 0.00 0.00 0.00 99 980.3
20260508063515 33 234 0.0 0.0 0.00 0.00 0.00 99 980.1
20260508063013 33 234 0.0 0.0 0.00 0.00 0.00 99 980.0
20260508062510 33 234 0.0 0.0 0.00 0.00 0.00 99 980.3
20260508062006 34 234 0.0 0.0 0.00 0.00 0.00 99 980.0
20260508061505 33 234 0.0 0.0 0.00 0.00 0.00 99 980.0
20260508061000 33 234 0.0 0.0 0.00 0.00 0.00 99 979.9
20260508060458 33 234 0.0 0.0 0.00 0.00 0.00 99 979.8
20260508055954 33 234 0.0 0.0 0.00 0.00 0.00 99 980.1
20260508055451 33 234 0.0 0.0 0.00 0.00 0.00 99 980.0
20260508054947 34 234 0.0 0.0 0.00 0.00 0.00 99 980.0
20260508054445 34 234 0.0 0.0 0.00 0.00 0.00 99 980.1
20260508053941 34 234 0.0 0.0 0.00 0.00 0.00 99 980.2
20260508053438 34 234 0.0 0.0 0.00 0.00 0.00 99 980.4
20260508052936 35 234 0.0 0.0 0.00 0.00 0.00 98 980.4
20260508052433 35 234 0.0 0.0 0.00 0.00 0.00 98 980.6
20260508051930 35 234 0.0 0.0 0.00 0.00 0.00 98 980.5
20260508051425 35 234 0.0 0.0 0.00 0.00 0.00 98 980.5
20260508050922 35 234 0.0 0.0 0.00 0.00 0.00 98 980.3
20260508050419 35 234 0.0 0.0 0.00 0.00 0.00 98 980.3
20260508045915 35 234 0.0 0.0 0.00 0.00 0.00 98 980.2
20260508045413 35 234 0.0 0.0 0.00 0.00 0.00 98 980.2
20260508044910 35 234 0.0 0.0 0.00 0.00 0.00 98 980.2
20260508044407 36 234 0.0 0.0 0.00 0.00 0.00 97 980.3
20260508043902 36 234 0.0 0.0 0.00 0.00 0.00 97 980.3
20260508043400 36 234 0.0 0.0 0.00 0.00 0.00 97 980.1
20260508042856 36 234 0.0 0.0 0.00 0.00 0.00 97 980.2
20260508042354 37 234 0.0 0.0 0.00 0.00 0.00 96 980.2
20260508041851 37 234 0.0 0.0 0.00 0.00 0.00 96 980.1
20260508041347 37 234 0.0 0.0 0.00 0.00 0.00 96 980.3
20260508040838 38 234 0.0 0.0 0.00 0.00 0.00 95 980.0
20260508040335 38 234 0.0 0.0 0.00 0.00 0.00 95 979.9
20260508035832 37 234 0.0 0.0 0.00 0.06 0.06 95 980.0
20260508035329 38 234 0.0 0.0 0.00 0.06 0.06 95 979.8
20260508034826 38 234 0.0 0.0 0.00 0.06 0.06 95 980.0
20260508034323 38 234 0.0 0.0 0.00 0.06 0.06 95 980.0
20260508033820 38 234 0.0 0.0 0.00 0.06 0.06 94 979.7
20260508033319 38 234 0.0 0.0 0.00 0.06 0.06 94 979.6
20260508032816 39 234 0.0 0.0 0.00 0.06 0.06 94 979.8
20260508032313 39 234 0.0 0.0 0.00 0.06 0.06 94 979.6
20260508031809 39 234 0.0 0.0 0.00 0.06 0.06 93 979.5
20260508031306 39 234 0.0 0.0 0.00 0.06 0.06 93 979.6
20260508030802 39 234 0.0 0.0 0.00 0.06 0.06 92 979.3
20260508030300 39 234 0.0 0.0 0.00 0.06 0.06 92 979.4
20260508025756 40 234 0.0 0.0 0.00 0.06 0.06 92 979.3
20260508025254 40 234 0.0 0.0 0.00 0.06 0.06 91 979.4
20260508024749 40 234 0.0 0.0 0.00 0.06 0.06 90 979.4
20260508024247 41 234 0.0 0.0 0.00 0.06 0.06 88 979.2
20260508023744 41 234 0.0 0.0 0.00 0.06 0.06 87 979.3
20260508023241 41 234 0.0 0.0 0.00 0.06 0.06 86 979.2
20260508022737 41 234 1.0 1.0 0.00 0.06 0.06 90 979.1
20260508022234 41 234 0.0 1.0 0.00 0.06 0.06 88 979.1
20260508021730 42 234 0.0 1.0 0.00 0.06 0.06 88 979.0
20260508021225 42 234 0.0 0.0 0.00 0.06 0.06 87 979.0
20260508020723 42 234 2.0 2.0 0.00 0.06 0.06 87 978.9
20260508020220 42 151 0.0 0.0 0.00 0.06 0.06 86 978.7
20260508015717 42 151 0.0 0.0 0.00 0.06 0.06 88 978.9
20260508015214 42 151 0.0 0.0 0.00 0.06 0.06 87 978.7
20260508014711 43 151 0.0 0.0 0.00 0.06 0.06 87 978.6
20260508014208 43 151 0.0 0.0 0.00 0.06 0.06 85 978.4
20260508013704 43 151 0.0 0.0 0.00 0.06 0.06 88 978.4
20260508013200 44 151 0.0 0.0 0.00 0.06 0.06 86 978.3
20260508012658 44 151 0.0 0.0 0.00 0.06 0.06 87 978.4
20260508012154 44 151 0.0 0.0 0.00 0.06 0.06 86 978.2